{"data":{"norad_id":60565,"intl_designator":"2024-149DB","name":"PTD-4 (LISA-T)","alt_names":[],"object_type":"PAYLOAD","status":"ACTIVE","operator":null,"country":"US","launch_date":"2024-08-16","launch_site_code":"AFWTR","launch_vehicle":null,"mission":null,"orbit_class":"UNKNOWN","rcs_meters":null,"size_class":null,"mass_kg":null,"dimensions":null,"purposes":[],"wikipedia_slug":null,"has_3d_model":false,"image_url":null,"decayed_at":null,"tle_current":{"epoch":"2026-05-25T04:29:58.945056Z","epoch_age_seconds":55951,"freshness":"FRESH","line1":"1 60565U 24149DB  26145.18748779  .00021689  00000+0  98048-3 0  9998","line2":"2 60565  97.6960 233.5558 0004415 124.4413 235.7240 15.20949288 97327","mean_motion":15.20949288,"eccentricity":0.0004415,"inclination_deg":97.696,"raan_deg":233.5558,"arg_perigee_deg":124.4413,"mean_anomaly_deg":235.724,"bstar":0.00098048,"rev_number":9732,"period_min":94.677712883745,"perigee_km":499.93791896357,"apogee_km":506.01394168105,"semimajor_km":6881.1129303223,"source":"CELESTRAK","updated_at":"2026-05-25T13:38:02.155346Z"}}}